Regional Weather Roundup
Issued by NWS

Home | Current Version | Previous Version | Graphics & Text | Print | Product List | Glossary On
Versions: 1 2 3 4 5 6 7 8 9 10 11 12 13 14 15 16 17 18 19 20 21 22 23 24 25 26 27 28 29 30 31 32 33 34 35 36 37 38 39 40 41 42 43 44 45 46 47 48 49 50
000
ASUS44 KMEG 261010
RWRTN
TENNESSEE HOURLY STATE WEATHER ROUNDUP
NATIONAL WEATHER SERVICE MEMPHIS TN
400 AM CST WED NOV 26 2014

TNZ002-004-019-021-049-052-054-088>092-261100-
WEST TENNESSEE

CITY           SKY/WX    TMP DP  RH WIND       PRES   REMARKS
MEMPHIS INTL   PTCLDY    32  25  75 CALM      30.13F
NWS MEMPHIS      N/A     28 N/A N/A MISG        N/A
JACKSON        CLEAR     23  21  92 SW3       30.14F
DYERSBURG      CLEAR     25  12  58 CALM      30.15F
UNION CITY     CLEAR     21  21 100 CALM      30.12F
PARIS          CLEAR     21  19  93 CALM      30.14F
HUNTINGDON     CLEAR     22  20  92 CALM      30.14F
LEXINGTON      CLEAR     23  21  93 CALM      30.13S
SAVANNAH       CLEAR     23  23 100 CALM      30.15R
$$

TNZ008-025-027-028-033-062-065-066-261100-
NORTH MIDDLE TENNESSEE

CITY           SKY/WX    TMP DP  RH WIND       PRES   REMARKS
NASHVILLE      CLEAR     30  26  85 W3        30.12S
CLARKSVILLE    CLEAR     27  25  92 NW5       30.14R WCI  22
SMYRNA         CLEAR     28  26  92 CALM      30.13R
COOKEVILLE     CLEAR     32  28  86 CALM      30.06R
CROSSVILLE     CLOUDY    38  26  62 NW5       30.02S WCI  34
$$

TNZ061-075-076-078-094-096-097-261100-
SOUTH MIDDLE TENNESSEE

CITY           SKY/WX    TMP DP  RH WIND       PRES   REMARKS
FAYETTEVILLE   CLEAR     32  25  74 NE14G32   30.08S WCI  22
TULLAHOMA      CLEAR     28  25  86 CALM      30.08S
WINCHESTER     CLEAR     34  27  75 CALM      30.07F
MCMINNVILLE    CLEAR     32  27  80 CALM      30.06S
COLUMBIA       CLEAR    N/A N/A N/A CALM      30.10S
SHELBYVILLE    CLEAR     30  27  86 W13G67    30.11R WCI  20
$$

TNZ017-018-042-046-047-261100-
NORTHEAST TENNESSEE

CITY           SKY/WX    TMP DP  RH WIND       PRES   REMARKS
TRI CITIES     LGT RAIN  41  36  82 CALM      29.96R
ELIZABETHTON   RAIN      39  37  93 E3        29.94F
$$

TNZ012-013-036-069-073-074-261100-
CENTRAL EAST TENNESSEE

CITY           SKY/WX    TMP DP  RH WIND       PRES   REMARKS
KNOXVILLE      CLOUDY    44  30  57 CALM      30.01S
OAK RIDGE      CLOUDY    44  30  57 CALM      30.00F
GATLINBURG     CLOUDY    45  28  53 W9        29.99R
MORRISTOWN       N/A     45  30  57 SW3       29.99R
$$

TNZ083-085-099-261100-
SOUTHEAST TENNESSEE

CITY           SKY/WX    TMP DP  RH WIND       PRES   REMARKS
CHATTANOOGA    CLOUDY    45  31  58 NW5       30.04R
$$

SKY/WX REPORTED AS FAIR MEANS FEW OR NO CLOUDS BELOW
12 THOUSAND FEET.



USA.gov is the U.S. government's official web portal to all federal, state and local government web resources and services.